Location: Newark
(45.9456°N, 15.4064°E)
Time: 05:16:49
(UTC+00:00)

SR - Pass Details

Date: 31 January 2020
Orbit: 575 x 881 km, 66.7° (Epoch: 19 February)

Event Time Altitude Azimuth Distance (km) Brightness Sun altitude
Rises 22:30:32 0° 282° (WNW) 3,479 - -60.1°
Reaches altitude 10° 22:34:33 10° 308° (NW) 2,541 - -60.4°
Maximum altitude 22:37:21 13° 336° (NNW) 2,291 - -60.5°
Drops below altitude 10° 22:40:08 10° 5° (N) 2,512 - -60.6°
Sets 22:44:04 0° 32° (NNE) 3,406 - -60.8°
